Wind_Speed
12 14 16 17 18 20 23 24 27 28 29 30 32 35 36 37 37 37 38 38 39 38 37 36 35 35 34 34 34 33 32 31 30 29 28 27 25 24 22 21 21 21 22 24
14 16 18 19 20 21 22 24 26 29 31 33 35 36 37 37 38 38 39 39 38 38 38 36 34 33 33 32 32 31 30 29 28 26 24 23 21 19 18 17 17 16 16 18
17 18 20 21 21 24 24 24 28 32 35 36 37 37 37 38 39 40 39 39 38 38 37 37 35 33 32 32 30 29 28 26 25 23 22 20 18 16 15 14 13 11 11 12
22 22 22 19 25 28 28 29 32 35 37 37 38 39 38 40 43 44 42 41 40 39 39 37 36 34 32 31 30 27 26 24 23 21 20 19 17 14 13 11 10 9 9 10
26 26 26 27 31 32 31 34 37 38 40 40 41 42 42 44 45 45 45 44 42 41 39 38 36 34 33 31 29 27 25 23 21 19 18 17 15 13 11 10 9 8 8 8
28 29 30 33 35 35 36 41 43 44 45 47 48 49 48 47 47 46 46 46 44 43 40 37 36 34 33 31 28 27 25 22 21 19 17 16 14 13 12 10 9 8 8 8
34 35 36 40 39 40 42 46 47 49 50 51 52 53 53 52 50 48 47 46 45 44 41 37 36 34 33 31 29 26 23 22 20 19 17 16 14 13 12 11 10 10 9 9
35 37 40 43 44 46 48 51 53 54 56 56 57 56 55 54 53 50 48 47 45 43 42 38 35 34 33 32 29 26 24 22 20 19 18 16 15 15 13 12 11 10 10 9
38 41 44 46 48 50 53 55 57 58 60 61 61 60 59 58 55 52 49 46 44 42 41 39 36 34 32 31 29 27 25 23 22 20 18 17 16 15 14 13 12 11 10 10
42 45 48 51 52 55 57 59 61 62 63 63 63 63 62 61 57 53 50 46 44 41 40 38 36 34 32 31 30 28 26 25 23 21 19 18 17 15 14 14 13 12 11 11
45 48 51 54 56 58 60 62 64 65 65 65 66 65 64 63 59 55 50 47 45 42 40 39 38 34 33 31 30 29 28 26 24 23 21 19 17 16 15 14 14 13 12 12
51 53 56 58 60 62 64 65 67 68 68 68 68 68 66 63 60 55 51 49 46 45 43 41 39 35 32 31 30 30 29 28 26 24 22 20 19 17 16 16 15 15 14 13
55 57 60 62 64 65 67 68 69 69 70 69 67 67 65 61 56 52 49 48 47 46 44 43 41 35 33 31 30 30 30 29 28 26 24 22 21 19 18 17 17 16 15 15
58 61 62 64 66 67 67 67 68 67 66 64 61 58 57 54 53 51 48 45 45 45 43 43 41 38 34 32 31 30 30 31 29 28 27 25 24 22 20 19 18 17 16 16
62 64 66 67 67 66 65 63 61 58 55 53 51 50 51 49 47 46 45 44 43 43 42 42 42 38 34 34 33 31 30 31 31 30 28 27 26 24 23 22 21 20 19 18
64 65 66 66 66 63 60 55 52 50 48 47 47 47 46 45 43 40 38 39 40 40 41 41 40 38 36 35 34 32 31 31 32 32 31 28 27 26 25 23 23 22 20 20
66 66 66 65 62 57 52 49 48 47 46 47 47 45 43 41 39 37 34 33 34 35 37 39 40 39 37 37 36 32 30 31 32 33 33 32 29 28 27 26 25 24 22 21
66 65 63 60 55 50 46 45 45 45 46 47 46 44 42 40 37 34 31 30 29 30 33 37 39 39 38 38 36 32 30 30 32 32 31 32 31 30 29 28 28 26 25 24
63 60 56 52 49 45 44 44 44 44 44 45 44 43 40 37 35 31 29 27 25 26 29 34 38 38 38 38 37 34 31 29 29 30 30 30 30 29 29 29 28 27 25 23
57 53 50 46 42 41 41 42 42 42 43 43 43 42 40 37 35 32 28 25 23 24 27 32 36 38 40 40 39 36 32 27 26 27 27 27 27 27 27 27 26 26 24 21
52 48 44 41 39 38 39 40 41 41 41 42 43 43 41 38 35 32 28 23 21 23 27 30 34 38 39 39 40 37 33 28 26 24 24 24 24 23 23 22 22 22 21 19
47 43 41 39 37 36 36 38 39 40 40 41 42 42 40 38 34 30 26 21 20 22 26 29 32 36 38 38 38 37 35 31 27 25 22 21 20 20 20 19 18 18 17 17
43 41 39 37 35 35 35 36 38 39 40 40 40 40 40 38 34 29 23 19 17 21 25 29 31 35 36 37 38 37 34 32 28 25 22 20 19 19 18 17 16 16 15 15
41 38 36 34 33 33 34 34 35 37 39 40 39 39 39 37 34 28 23 17 15 19 23 29 32 34 35 37 39 39 36 32 28 25 23 22 20 19 18 18 17 16 15 15
38 36 34 32 31 31 32 32 34 37 39 39 38 38 37 35 32 26 20 15 13 17 22 28 32 34 34 35 37 38 35 32 30 27 25 23 21 20 19 18 17 17 16 16
36 34 32 31 30 30 31 33 36 38 38 38 38 38 36 33 29 23 18 13 13 16 21 27 32 33 33 34 35 36 34 32 30 28 26 23 22 21 20 18 18 17 17 16
35 32 30 28 27 28 30 33 36 37 38 39 39 38 34 31 27 22 16 11 13 17 22 26 30 32 34 34 34 34 33 32 30 28 26 24 23 21 20 19 18 17 16 16
Wind_Direction
309 302 299 299 298 295 294 297 298 301 299 299 296 297 301 304 306 307 308 309 311 311 309 306 300 295 291 289 289 290 292 294 295 295 296 295 296 296 292 286 283 278 268 259
313 306 305 305 303 300 298 297 296 296 295 296 299 301 303 305 306 306 307 308 310 310 310 309 305 299 295 292 291 292 292 293 293 294 295 295 295 297 293 289 286 280 268 255
316 309 309 310 304 302 302 299 295 295 298 302 303 303 304 305 302 302 304 306 307 308 307 307 306 301 296 294 292 292 292 292 292 293 294 293 292 293 293 289 285 274 267 256
314 310 311 307 297 298 301 300 298 300 303 303 302 302 303 301 301 303 304 304 304 305 305 304 303 301 298 294 290 289 291 290 289 289 289 289 288 288 290 286 284 279 268 256
312 310 309 298 295 301 306 302 301 304 303 302 301 301 299 298 299 300 301 301 301 301 301 301 300 299 296 294 289 285 286 285 286 285 285 284 282 281 280 278 275 267 254 247
309 307 305 298 302 307 307 302 305 305 302 302 301 299 299 297 296 295 295 295 296 296 297 297 295 294 293 290 286 281 280 280 278 279 279 276 274 270 269 269 264 260 259 254
313 310 306 304 309 308 305 303 302 300 299 298 297 296 296 295 294 292 291 291 291 291 293 292 291 290 288 287 282 276 274 274 272 272 272 270 266 264 262 260 261 259 257 253
308 305 303 306 306 305 303 301 300 298 297 296 295 294 293 293 292 290 288 288 287 287 287 288 287 285 283 282 276 270 268 268 267 266 266 264 262 260 258 254 255 252 248 248
307 304 303 303 303 302 300 299 298 297 296 295 294 293 292 291 289 288 286 283 282 281 282 283 280 279 279 276 271 264 261 261 259 260 258 258 257 253 250 248 248 246 246 246
306 304 304 303 303 302 301 300 299 298 296 295 293 292 290 289 287 286 283 279 276 274 276 276 276 272 273 271 265 260 257 255 252 253 252 251 252 250 247 244 242 243 243 245
303 303 303 303 303 302 301 300 299 297 296 294 293 291 288 287 286 283 279 275 271 267 266 268 267 264 266 265 261 256 252 250 247 247 247 246 246 245 242 241 240 241 244 247
306 306 306 305 305 304 303 301 300 299 297 295 294 293 291 289 287 283 278 273 268 264 261 261 260 256 256 258 255 252 248 245 243 241 242 243 242 241 240 241 241 242 244 249
308 308 308 308 307 306 305 303 302 300 299 297 297 296 295 292 289 285 279 273 267 261 258 256 254 251 251 254 250 247 244 240 239 237 237 239 239 239 240 241 243 245 247 251
311 311 311 310 309 307 305 304 303 302 304 305 305 304 301 296 291 286 281 275 269 260 255 252 250 245 241 244 245 243 241 237 236 234 234 236 237 238 240 242 244 247 251 255
315 314 312 311 309 308 308 308 309 310 311 312 311 309 306 301 297 290 284 276 268 260 251 248 246 241 233 235 240 239 239 236 233 233 234 235 237 239 240 242 246 249 253 256
315 313 312 311 311 311 312 313 314 316 317 317 316 313 309 305 301 296 287 279 267 257 248 244 240 237 231 231 235 236 238 235 233 233 234 236 238 239 240 242 246 249 253 257
315 314 313 313 313 314 316 316 317 318 318 318 318 317 314 310 306 300 289 280 266 255 244 240 235 231 226 226 228 230 234 233 232 232 233 235 238 239 241 242 246 250 253 257
316 315 315 315 316 316 318 318 320 320 320 320 320 319 317 313 309 302 293 283 268 254 242 236 230 228 224 220 221 225 232 232 230 231 233 234 235 238 241 244 246 249 252 255
316 315 315 316 316 317 318 319 320 322 324 325 325 324 321 316 312 307 297 286 270 253 239 232 227 225 222 216 219 222 224 228 229 231 232 232 234 238 241 244 247 250 253 253
316 316 316 317 317 318 319 320 322 323 324 326 327 326 323 319 314 308 301 285 267 250 233 227 224 221 218 215 215 214 217 223 228 229 230 231 234 238 241 243 245 250 253 251
318 318 318 317 318 320 320 322 324 325 325 326 327 327 325 322 317 312 303 286 262 245 230 224 220 216 213 212 212 211 214 219 223 226 229 232 233 233 235 239 243 246 250 252
319 319 319 318 319 321 322 323 325 327 328 328 329 329 328 325 322 315 306 287 258 239 226 220 217 213 210 209 208 211 213 216 218 221 225 228 228 228 231 234 237 241 248 254
320 320 320 319 320 321 323 325 327 328 329 330 329 329 328 327 324 318 308 289 257 233 220 214 213 210 206 206 205 207 209 211 215 219 221 222 223 223 226 230 234 240 248 256
321 321 321 320 321 322 325 327 329 331 331 331 331 330 329 328 325 318 307 291 256 227 215 209 207 205 204 203 202 205 207 209 213 215 216 219 220 222 225 230 236 243 251 258
324 323 323 322 323 326 329 331 332 333 333 333 333 332 329 328 327 322 309 287 251 221 208 203 200 201 203 202 203 204 203 207 210 212 215 218 219 221 224 230 237 244 251 257
327 326 326 326 327 330 332 334 335 337 336 336 337 335 333 330 328 324 312 281 241 215 203 199 198 198 199 199 199 200 201 204 207 209 212 216 219 222 227 231 238 245 251 256
328 327 327 327 328 330 333 335 337 338 338 338 338 338 336 333 329 325 314 275 228 209 200 196 195 195 194 193 196 197 198 201 204 206 210 214 219 223 227 231 238 245 252 256
Height
5842 5840 5838 5836 5834 5832 5829 5826 5822 5819 5815 5812 5806 5801 5797 5792 5787 5782 5777 5772 5767 5761 5756 5753 5749 5745 5743 5740 5738 5735 5732 5729 5726 5723 5719 5716 5713 5710 5708 5706 5705 5705 5704 5706
5839 5836 5833 5831 5828 5826 5823 5820 5815 5811 5807 5803 5798 5793 5788 5784 5779 5774 5769 5764 5759 5754 5750 5745 5742 5738 5735 5732 5730 5727 5725 5722 5719 5716 5714 5711 5709 5706 5704 5703 5702 5701 5701 5702
5835 5831 5828 5825 5822 5819 5816 5812 5807 5802 5799 5794 5790 5785 5781 5776 5771 5765 5761 5757 5752 5747 5743 5738 5735 5731 5728 5725 5723 5720 5718 5716 5713 5711 5708 5706 5704 5702 5701 5699 5699 5698 5698 5699
5829 5826 5823 5823 5815 5812 5809 5804 5799 5794 5791 5786 5781 5777 5773 5766 5760 5756 5752 5748 5744 5739 5735 5731 5727 5724 5721 5718 5716 5714 5712 5710 5708 5706 5704 5702 5700 5699 5698 5697 5696 5696 5696 5696
5823 5819 5817 5813 5806 5804 5801 5795 5790 5787 5782 5777 5772 5767 5763 5757 5751 5746 5742 5738 5734 5730 5726 5722 5719 5716 5714 5711 5709 5707 5706 5704 5702 5701 5699 5698 5697 5696 5695 5695 5694 5694 5694 5694
5817 5813 5809 5803 5799 5796 5793 5786 5780 5776 5770 5764 5759 5754 5751 5746 5741 5736 5731 5727 5723 5720 5717 5714 5711 5708 5706 5704 5702 5701 5700 5698 5697 5696 5695 5694 5693 5692 5692 5692 5692 5692 5692 5692
5807 5803 5799 5793 5791 5788 5784 5778 5771 5765 5759 5753 5747 5741 5736 5732 5728 5723 5719 5716 5712 5709 5706 5704 5701 5699 5697 5696 5694 5694 5693 5692 5692 5691 5690 5690 5689 5689 5689 5689 5689 5689 5690 5690
5802 5796 5792 5786 5782 5777 5772 5764 5757 5751 5745 5738 5733 5727 5721 5716 5712 5708 5705 5702 5699 5697 5695 5693 5691 5689 5688 5687 5686 5686 5686 5686 5686 5685 5685 5685 5685 5685 5685 5686 5686 5686 5687 5688
5794 5789 5782 5776 5771 5764 5757 5750 5743 5735 5728 5721 5715 5710 5704 5700 5696 5692 5689 5687 5685 5683 5682 5681 5680 5679 5678 5677 5677 5678 5678 5679 5679 5680 5680 5680 5680 5681 5682 5682 5683 5684 5685 5686
5784 5777 5771 5764 5758 5750 5742 5734 5726 5718 5710 5702 5696 5690 5685 5681 5678 5675 5673 5671 5669 5668 5668 5668 5667 5667 5667 5667 5668 5669 5670 5671 5672 5673 5674 5675 5675 5677 5678 5678 5679 5681 5682 5683
5774 5767 5760 5752 5744 5736 5727 5718 5709 5700 5691 5683 5675 5669 5664 5660 5657 5655 5654 5653 5652 5652 5653 5654 5653 5653 5655 5656 5658 5660 5661 5663 5665 5666 5668 5669 5670 5672 5673 5675 5676 5677 5679 5681
5761 5754 5746 5738 5728 5719 5709 5700 5690 5680 5672 5663 5653 5646 5641 5637 5635 5634 5633 5633 5633 5635 5636 5637 5638 5638 5642 5645 5647 5650 5652 5654 5657 5659 5661 5663 5665 5667 5668 5670 5672 5673 5675 5677
5748 5739 5730 5720 5711 5700 5689 5680 5669 5659 5649 5640 5632 5625 5618 5615 5612 5611 5611 5612 5613 5615 5618 5621 5622 5625 5630 5633 5636 5639 5642 5646 5648 5651 5654 5657 5659 5661 5663 5665 5667 5669 5671 5673
5733 5724 5714 5703 5693 5681 5670 5660 5650 5640 5630 5620 5612 5605 5598 5594 5592 5590 5590 5591 5593 5596 5600 5603 5606 5611 5616 5621 5625 5628 5632 5636 5640 5643 5647 5650 5652 5655 5658 5660 5662 5664 5666 5668
5716 5706 5696 5685 5674 5663 5652 5641 5631 5623 5614 5605 5596 5589 5582 5576 5573 5571 5570 5571 5574 5577 5582 5586 5591 5596 5601 5607 5612 5617 5622 5626 5631 5635 5639 5642 5645 5648 5651 5654 5657 5659 5661 5663
5701 5690 5679 5667 5657 5646 5636 5627 5617 5609 5601 5593 5585 5577 5569 5563 5558 5555 5553 5553 5555 5559 5565 5571 5577 5582 5588 5595 5601 5606 5611 5617 5622 5626 5630 5634 5638 5641 5645 5648 5650 5653 5655 5657
5684 5673 5662 5651 5641 5632 5623 5614 5605 5597 5589 5582 5574 5566 5558 5551 5546 5542 5540 5539 5540 5544 5550 5557 5564 5569 5576 5582 5589 5595 5601 5607 5612 5617 5622 5626 5630 5634 5637 5640 5643 5646 5649 5651
5667 5656 5645 5635 5626 5618 5611 5603 5595 5587 5579 5571 5563 5555 5548 5541 5536 5531 5529 5527 5528 5532 5537 5544 5551 5558 5564 5571 5577 5585 5592 5598 5603 5608 5613 5618 5622 5626 5629 5633 5636 5639 5642 5644
5653 5642 5633 5624 5615 5608 5601 5594 5586 5579 5571 5562 5554 5546 5539 5532 5526 5522 5518 5517 5518 5521 5526 5532 5540 5547 5554 5561 5568 5575 5582 5589 5595 5600 5605 5609 5614 5618 5621 5625 5628 5631 5634 5637
5640 5630 5621 5614 5606 5599 5592 5585 5578 5570 5563 5554 5546 5538 5530 5524 5518 5513 5509 5507 5508 5510 5515 5522 5529 5537 5544 5552 5559 5566 5574 5581 5588 5593 5597 5602 5606 5610 5614 5617 5620 5623 5626 5630
5628 5619 5611 5604 5598 5591 5585 5577 5570 5562 5555 5546 5538 5530 5522 5515 5509 5503 5500 5499 5499 5501 5506 5512 5520 5528 5536 5543 5551 5559 5567 5575 5581 5587 5591 5596 5600 5603 5607 5610 5614 5617 5619 5622
5617 5610 5602 5595 5589 5583 5577 5570 5563 5555 5547 5539 5531 5522 5515 5508 5501 5496 5492 5490 5491 5493 5498 5505 5512 5520 5528 5536 5544 5553 5561 5569 5576 5581 5586 5590 5594 5598 5601 5605 5608 5611 5613 5616
5608 5601 5594 5587 5581 5576 5570 5563 5556 5548 5540 5532 5524 5516 5508 5501 5494 5489 5485 5483 5483 5486 5491 5498 5505 5513 5521 5530 5539 5547 5555 5563 5570 5576 5581 5585 5589 5593 5597 5600 5603 5606 5608 5610
5600 5593 5587 5580 5574 5569 5563 5557 5550 5542 5534 5526 5518 5509 5501 5494 5488 5483 5479 5477 5477 5479 5484 5491 5499 5507 5515 5524 5533 5542 5550 5558 5565 5571 5576 5581 5585 5589 5592 5596 5599 5602 5604 5605
5592 5585 5579 5573 5568 5562 5556 5550 5544 5537 5529 5520 5512 5504 5496 5488 5482 5477 5473 5472 5472 5475 5479 5486 5494 5502 5511 5519 5528 5537 5545 5553 5560 5566 5571 5576 5580 5584 5588 5591 5594 5597 5599 5601
5585 5578 5572 5567 5561 5556 5550 5544 5538 5531 5522 5514 5507 5499 5491 5483 5477 5472 5469 5467 5468 5471 5476 5482 5489 5497 5506 5514 5523 5532 5540 5548 5555 5561 5567 5572 5576 5580 5584 5587 5590 5592 5594 5595
5579 5573 5567 5562 5558 5552 5546 5540 5533 5525 5517 5509 5501 5493 5485 5478 5472 5467 5464 5463 5465 5467 5472 5478 5486 5494 5502 5511 5520 5528 5536 5544 5551 5557 5562 5567 5572 5575 5579 5582 5585 5587 5589 5590